Time,TemperatureF,DewpointF,PressureIn,WindDirection,WindDirectionDegrees,WindSpeedMPH,WindSpeedGustMPH,Humidity,HourlyPrecipIn,Conditions,Clouds,dailyrainin,SolarRadiationWatts/m^2,SoftwareType,DateUTC
2013-04-18 00:02:00,64.0,57.0,-100.00,South,172,6.0,12.0,79,0.00,,,1.09,0.000000,,2013-04-18 05:02:00,
2013-04-18 00:33:00,65.0,57.0,-100.00,SSE,156,6.0,14.0,76,0.00,,,1.09,0.000000,,2013-04-18 05:33:00,
2013-04-18 00:42:00,65.0,57.0,-100.00,SSE,156,6.0,14.0,76,0.00,,,1.09,0.000000,,2013-04-18 05:42:00,
2013-04-18 00:52:00,65.0,57.0,-100.00,SSE,156,6.0,14.0,76,0.00,,,1.09,0.000000,,2013-04-18 05:52:00,
2013-04-18 01:02:00,65.0,57.0,-100.00,SSE,156,6.0,14.0,76,0.00,,,1.09,0.000000,,2013-04-18 06:02:00,
2013-04-18 01:32:00,65.0,59.0,-100.00,South,174,6.0,13.0,80,0.00,,,1.09,0.000000,,2013-04-18 06:32:00,
2013-04-18 01:42:00,65.0,59.0,-100.00,South,174,6.0,13.0,80,0.00,,,1.09,0.000000,,2013-04-18 06:42:00,
2013-04-18 01:52:00,65.0,59.0,-100.00,South,174,6.0,13.0,80,0.00,,,1.09,0.000000,,2013-04-18 06:52:00,
2013-04-18 02:02:00,65.0,59.0,-100.00,South,174,6.0,13.0,80,0.00,,,1.09,0.000000,,2013-04-18 07:02:00,
2013-04-18 02:32:00,64.0,59.0,-100.00,South,184,8.0,15.0,84,0.00,,,1.09,0.000000,,2013-04-18 07:32:00,
2013-04-18 02:42:00,64.0,59.0,-100.00,South,184,8.0,15.0,84,0.00,,,1.09,0.000000,,2013-04-18 07:42:00,
2013-04-18 02:53:00,64.0,59.0,-100.00,South,184,8.0,15.0,84,0.00,,,1.09,0.000000,,2013-04-18 07:53:00,
2013-04-18 03:02:00,64.0,59.0,-100.00,South,184,8.0,15.0,84,0.00,,,1.09,0.000000,,2013-04-18 08:02:00,
2013-04-18 03:32:00,63.0,59.0,-100.00,SE,144,5.0,13.0,88,0.00,,,1.09,0.000000,,2013-04-18 08:32:00,
2013-04-18 03:42:00,63.0,59.0,-100.00,SE,144,5.0,13.0,88,0.00,,,1.09,0.000000,,2013-04-18 08:42:00,
2013-04-18 03:52:00,63.0,59.0,-100.00,SE,144,5.0,13.0,88,0.00,,,1.09,0.000000,,2013-04-18 08:52:00,
2013-04-18 04:02:00,63.0,59.0,-100.00,SE,144,5.0,13.0,88,0.00,,,1.09,0.000000,,2013-04-18 09:02:00,
2013-04-18 04:33:00,60.0,60.0,-100.00,ESE,116,5.0,11.0,99,0.00,,,1.09,0.000000,,2013-04-18 09:33:00,
2013-04-18 04:43:00,60.0,60.0,-100.00,ESE,116,5.0,11.0,99,0.00,,,1.09,0.000000,,2013-04-18 09:43:00,
2013-04-18 04:53:00,60.0,60.0,-100.00,ESE,116,5.0,11.0,99,0.00,,,1.09,0.000000,,2013-04-18 09:53:00,
2013-04-18 05:03:00,60.0,60.0,-100.00,ESE,116,5.0,11.0,99,0.00,,,1.09,0.000000,,2013-04-18 10:03:00,
2013-04-18 05:33:00,59.0,59.0,-100.00,SE,137,8.0,14.0,100,0.00,,,1.09,0.000000,,2013-04-18 10:33:00,
2013-04-18 05:42:00,59.0,59.0,-100.00,SE,137,8.0,14.0,100,0.00,,,1.09,0.000000,,2013-04-18 10:42:00,
2013-04-18 05:53:00,59.0,59.0,-100.00,SE,137,8.0,14.0,100,0.00,,,1.09,0.000000,,2013-04-18 10:53:00,
2013-04-18 06:03:00,59.0,59.0,-100.00,SE,137,8.0,14.0,100,0.00,,,1.09,0.000000,,2013-04-18 11:03:00,
2013-04-18 06:32:00,59.0,59.0,-100.00,SE,127,9.0,13.0,100,0.00,,,1.09,0.000000,,2013-04-18 11:32:00,
2013-04-18 06:42:00,59.0,59.0,-100.00,SE,127,9.0,13.0,100,0.00,,,1.09,0.000000,,2013-04-18 11:42:00,
2013-04-18 06:52:00,59.0,59.0,-100.00,SE,127,9.0,13.0,100,0.00,,,1.09,0.000000,,2013-04-18 11:52:00,
2013-04-18 07:02:00,59.0,59.0,-100.00,SE,127,9.0,13.0,100,0.00,,,1.09,0.000000,,2013-04-18 12:02:00,
2013-04-18 07:32:00,60.0,60.0,-100.00,SSE,151,8.0,19.0,100,0.00,,,1.09,27.000000,,2013-04-18 12:32:00,
2013-04-18 07:42:00,60.0,60.0,-100.00,SSE,151,8.0,19.0,100,0.00,,,1.09,27.000000,,2013-04-18 12:42:00,
2013-04-18 07:52:00,60.0,60.0,-100.00,SSE,151,8.0,19.0,100,0.00,,,1.09,27.000000,,2013-04-18 12:52:00,
2013-04-18 08:03:00,60.0,60.0,-100.00,SSE,151,8.0,19.0,100,0.00,,,1.09,27.000000,,2013-04-18 13:03:00,
2013-04-18 08:33:00,61.0,61.0,-100.00,SSE,160,8.0,18.0,100,0.00,,,1.09,108.000000,,2013-04-18 13:33:00,
2013-04-18 08:43:00,61.0,61.0,-100.00,SSE,160,8.0,18.0,100,0.00,,,1.09,108.000000,,2013-04-18 13:43:00,
2013-04-18 08:53:00,61.0,61.0,-100.00,SSE,160,8.0,18.0,100,0.00,,,1.09,108.000000,,2013-04-18 13:53:00,
2013-04-18 09:03:00,61.0,61.0,-100.00,SSE,160,8.0,18.0,100,0.00,,,1.09,108.000000,,2013-04-18 14:03:00,
2013-04-18 09:33:00,65.0,60.0,-100.00,SSE,160,8.0,17.0,85,0.00,,,1.09,323.000000,,2013-04-18 14:33:00,
2013-04-18 09:43:00,65.0,60.0,-100.00,SSE,160,8.0,17.0,85,0.00,,,1.09,323.000000,,2013-04-18 14:43:00,
2013-04-18 09:52:00,65.0,60.0,-100.00,SSE,160,8.0,17.0,85,0.00,,,1.09,323.000000,,2013-04-18 14:52:00,
2013-04-18 10:03:00,65.0,60.0,-100.00,SSE,160,8.0,17.0,85,0.00,,,1.09,323.000000,,2013-04-18 15:03:00,
2013-04-18 10:33:00,69.0,60.0,-100.00,SSE,157,8.0,17.0,72,0.00,,,1.09,597.000000,,2013-04-18 15:33:00,
2013-04-18 10:43:00,69.0,60.0,-100.00,SSE,157,8.0,17.0,72,0.00,,,1.09,597.000000,,2013-04-18 15:43:00,
2013-04-18 10:53:00,69.0,60.0,-100.00,SSE,157,8.0,17.0,72,0.00,,,1.09,597.000000,,2013-04-18 15:53:00,
2013-04-18 11:03:00,69.0,60.0,-100.00,SSE,157,8.0,17.0,72,0.00,,,1.09,597.000000,,2013-04-18 16:03:00,
2013-04-18 11:33:00,71.0,56.0,-100.00,SSE,168,14.0,30.0,60,0.00,,,1.09,773.000000,,2013-04-18 16:33:00,
2013-04-18 11:43:00,71.0,56.0,-100.00,SSE,168,14.0,30.0,60,0.00,,,1.09,773.000000,,2013-04-18 16:43:00,
2013-04-18 11:53:00,71.0,56.0,-100.00,SSE,168,14.0,30.0,60,0.00,,,1.09,773.000000,,2013-04-18 16:53:00,
2013-04-18 12:03:00,71.0,56.0,-100.00,SSE,168,14.0,30.0,60,0.00,,,1.09,773.000000,,2013-04-18 17:03:00,
2013-04-18 12:33:00,73.0,56.0,-100.00,SSE,164,12.0,22.0,55,0.00,,,1.09,810.000000,,2013-04-18 17:33:00,
2013-04-18 12:43:00,73.0,56.0,-100.00,SSE,164,12.0,22.0,55,0.00,,,1.09,810.000000,,2013-04-18 17:43:00,
2013-04-18 12:52:00,73.0,56.0,-100.00,SSE,164,12.0,22.0,55,0.00,,,1.09,810.000000,,2013-04-18 17:52:00,
2013-04-18 13:03:00,73.0,56.0,-100.00,SSE,164,12.0,22.0,55,0.00,,,1.09,810.000000,,2013-04-18 18:03:00,
2013-04-18 13:33:00,73.0,54.0,-100.00,SSE,167,12.0,24.0,52,0.00,,,1.09,763.000000,,2013-04-18 18:33:00,
2013-04-18 13:43:00,73.0,54.0,-100.00,SSE,167,12.0,24.0,52,0.00,,,1.09,763.000000,,2013-04-18 18:43:00,
2013-04-18 13:53:00,73.0,54.0,-100.00,SSE,167,12.0,24.0,52,0.00,,,1.09,763.000000,,2013-04-18 18:53:00,
2013-04-18 14:03:00,73.0,54.0,-100.00,SSE,167,12.0,24.0,52,0.00,,,1.09,763.000000,,2013-04-18 19:03:00,
2013-04-18 14:33:00,75.0,53.0,-100.00,SSE,165,13.0,25.0,47,0.00,,,1.09,673.000000,,2013-04-18 19:33:00,
2013-04-18 14:43:00,75.0,53.0,-100.00,SSE,165,13.0,25.0,47,0.00,,,1.09,673.000000,,2013-04-18 19:43:00,
2013-04-18 14:53:00,75.0,53.0,-100.00,SSE,165,13.0,25.0,47,0.00,,,1.09,673.000000,,2013-04-18 19:53:00,
2013-04-18 15:03:00,75.0,53.0,-100.00,SSE,165,13.0,25.0,47,0.00,,,1.09,673.000000,,2013-04-18 20:03:00,
2013-04-18 15:32:00,76.0,52.0,-100.00,South,170,14.0,27.0,43,0.00,,,1.09,664.000000,,2013-04-18 20:32:00,
2013-04-18 15:43:00,76.0,52.0,-100.00,South,170,14.0,27.0,43,0.00,,,1.09,664.000000,,2013-04-18 20:43:00,
2013-04-18 15:52:00,76.0,52.0,-100.00,South,170,14.0,27.0,43,0.00,,,1.09,664.000000,,2013-04-18 20:52:00,
2013-04-18 16:03:00,76.0,52.0,-100.00,South,170,14.0,27.0,43,0.00,,,1.09,664.000000,,2013-04-18 21:03:00,
2013-04-18 17:33:00,74.0,51.0,-100.00,South,175,11.0,24.0,45,-99.99,,,0.62,268.000000,,2013-04-18 22:33:00,
2013-04-18 17:42:00,74.0,51.0,-100.00,South,175,11.0,24.0,45,-99.99,,,0.62,268.000000,,2013-04-18 22:42:00,
2013-04-18 17:53:00,74.0,51.0,-100.00,South,175,11.0,24.0,45,-99.99,,,0.62,268.000000,,2013-04-18 22:53:00,
2013-04-18 18:04:00,74.0,51.0,-100.00,South,175,11.0,24.0,45,-99.99,,,0.62,268.000000,,2013-04-18 23:04:00,
2013-04-18 18:32:00,73.0,52.0,-100.00,South,172,12.0,25.0,48,0.00,,,0.60,155.000000,,2013-04-18 23:32:00,
2013-04-18 18:42:00,73.0,52.0,-100.00,South,172,12.0,25.0,48,0.00,,,0.60,155.000000,,2013-04-18 23:42:00,
2013-04-18 18:52:00,73.0,52.0,-100.00,South,172,12.0,25.0,48,0.00,,,0.60,155.000000,,2013-04-18 23:52:00,
2013-04-18 19:01:00,73.0,52.0,-100.00,South,172,12.0,25.0,48,0.00,,,0.60,155.000000,,2013-04-19 00:01:00,
2013-04-18 19:32:00,72.0,53.0,-100.00,South,178,10.0,24.0,51,0.00,,,0.01,46.000000,,2013-04-19 00:32:00,
2013-04-18 19:42:00,72.0,53.0,-100.00,South,178,10.0,24.0,51,0.00,,,0.01,46.000000,,2013-04-19 00:42:00,
2013-04-18 19:52:00,72.0,53.0,-100.00,South,178,10.0,24.0,51,0.00,,,0.01,46.000000,,2013-04-19 00:52:00,
2013-04-18 20:01:00,72.0,53.0,-100.00,South,178,10.0,24.0,51,0.00,,,0.01,46.000000,,2013-04-19 01:01:00,
2013-04-18 20:32:00,70.0,54.0,-100.00,South,181,9.0,22.0,56,0.00,,,0.00,0.000000,,2013-04-19 01:32:00,
2013-04-18 20:42:00,70.0,54.0,-100.00,South,181,9.0,22.0,56,0.00,,,0.00,0.000000,,2013-04-19 01:42:00,
2013-04-18 20:52:00,70.0,54.0,-100.00,South,181,9.0,22.0,56,0.00,,,0.00,0.000000,,2013-04-19 01:52:00,
2013-04-18 21:02:00,70.0,54.0,-100.00,South,181,9.0,22.0,56,0.00,,,0.00,0.000000,,2013-04-19 02:02:00,
2013-04-18 21:32:00,70.0,55.0,-100.00,South,176,10.0,24.0,58,0.00,,,0.00,0.000000,,2013-04-19 02:32:00,
2013-04-18 21:42:00,70.0,55.0,-100.00,South,176,10.0,24.0,58,0.00,,,0.00,0.000000,,2013-04-19 02:42:00,
2013-04-18 21:52:00,70.0,55.0,-100.00,South,176,10.0,24.0,58,0.00,,,0.00,0.000000,,2013-04-19 02:52:00,
2013-04-18 22:01:00,70.0,55.0,-100.00,South,176,10.0,24.0,58,0.00,,,0.00,0.000000,,2013-04-19 03:01:00,
2013-04-18 22:33:00,69.0,54.0,-100.00,South,171,14.0,29.0,59,0.00,,,0.00,0.000000,,2013-04-19 03:33:00,
2013-04-18 22:43:00,69.0,54.0,-100.00,South,171,14.0,29.0,59,0.00,,,0.00,0.000000,,2013-04-19 03:43:00,
2013-04-18 22:53:00,69.0,54.0,-100.00,South,171,14.0,29.0,59,0.00,,,0.00,0.000000,,2013-04-19 03:53:00,
2013-04-18 23:03:00,69.0,54.0,-100.00,South,171,14.0,29.0,59,0.00,,,0.00,0.000000,,2013-04-19 04:03:00,
2013-04-18 23:33:00,69.0,56.0,-100.00,South,170,14.0,33.0,64,0.00,,,0.00,0.000000,,2013-04-19 04:33:00,
2013-04-18 23:43:00,69.0,56.0,-100.00,South,170,14.0,33.0,64,0.00,,,0.00,0.000000,,2013-04-19 04:43:00,
2013-04-18 23:52:00,69.0,56.0,-100.00,South,170,14.0,33.0,64,0.00,,,0.00,0.000000,,2013-04-19 04:52:00,